AirNav   Get $300 off a Bose A20
 
 703 users online  

1S2 Darrington Municipal Airport
Darrington, Washington, USA

GOING TO DARRINGTON?


FAA INFORMATION EFFECTIVE 28 MARCH 2019

Location

FAA Identifier: 1S2
Lat/Long: 48-15-31.0050N / 121-36-36.7330W
48-15.516750N / 121-36.612217W
48.2586125 / -121.6102036
(estimated)
Elevation: 553 ft. / 169 m (estimated)
Variation: 21E (1985)
Time zone: UTC -7 (UTC -8 during Standard Time)
Zip code: 98241

Airport Operations

Airport use: Open to the public
Activation date: 01/1948
Control tower: no
ARTCC: SEATTLE CENTER
FSS: SEATTLE FLIGHT SERVICE STATION
NOTAMs facility: SEA (NOTAM-D service available)
Attendance: UNATNDD
Wind indicator: lighted
Segmented circle: no
Lights: ACTVT MIRL RY 10/28 BY CONTACTING AIRPORT MANAGER.
Beacon: white-green (lighted land airport)
Operates sunset to sunrise.

Airport Communications

CTAF: 122.9

Nearby radio navigation aids

VOR radial/distance  VOR name  Freq  Var
PAEr033/33.6PAINE VOR/DME110.6020E

 
NDB name  Hdg/Dist  Freq  Var  ID
SKAGIT/BAY VIEW095/34.624016EBVS -... ...- ...

Airport Services

Parking: tiedowns
Airframe service: NONE
Powerplant service: NONE
Bottled oxygen: NONE
Bulk oxygen: NONE

Runway Information

Runway 10/28

Dimensions: 2491 x 40 ft. / 759 x 12 m
Surface: asphalt, in good condition
Runway edge lights: medium intensity
MIRL RY 10/28 OTS INDEFLY.
RUNWAY 10  RUNWAY 28
Latitude: 48-15.588983N48-15.444517N
Longitude: 121-36.899333W121-36.325117W
Elevation: 544.0 ft.553.0 ft.
Traffic pattern: leftleft
Runway heading: 090 magnetic, 111 true270 magnetic, 291 true
Markings: basic, in good conditionbasic, in good condition
Obstructions: 4 ft. fence, 200 ft. from runway, 29 ft. right of centerline
FENCE AT 40', 104' RIGHT.
15 ft. road, 305 ft. from runway, 126 ft. left of centerline, 7:1 slope to clear

Airport Ownership and Management from official FAA records

Ownership: Publicly-owned
Owner: TOWN OF DARRINGTON
P.O. BOX 397
DARRINGTON, WA 98241
Phone 360-436-1131
Manager: JIM HALE
P.O. BOX 312
DARRINGTON, WA 98241
Phone 360-436-1454
MANAGER'S CELL PHONE NUMBER IS 360-631-1928.

Airport Operational Statistics

Aircraft based on the field: 11
Single engine airplanes: 5
Helicopters: 4
Gliders airplanes: 2
    
Aircraft operations: avg 44/week *
67% local general aviation
33% transient general aviation
* for 12-month period ending 31 December 2016

Additional Remarks

CLSD WHEN SNOW ON RY.
TURB ON HOT DAYS LNDG W IN TRSN EAST APPROACH.
TWYS MARKED WITH BLUE REFLECTORS.

Instrument Procedures

There are no published instrument procedures at 1S2.

Some nearby airports with instrument procedures:

KAWO - Arlington Municipal Airport (23 nm W)
S43 - Harvey Field Airport (29 nm SW)
KPAE - Snohomish County Airport (Paine Field) (34 nm SW)
KBVS - Skagit Regional Airport (35 nm W)
KNUW - Whidbey Island Naval Air Station (Ault Field) (42 nm W)
 
Loc | Ops | Rwys | IFR | FBO | Links
Com | Nav | Svcs | Stats | Notes
Area around 1S2 (Darrington Municipal Airport)
 
Road maps at: MapQuest Bing Google
 
Aerial photo
WARNING: Photo may not be current or correct
Aerial photo of 1S2 (Darrington Municipal Airport)
Do you have a better or more recent aerial photo of Darrington Municipal Airport that you would like to share? If so, please send us your photo.

 
Sectional chart

 
Airport distance calculator
Flying to Darrington Municipal Airport? Find the distance to fly.

From to 1S2

Sunrise and sunset
Times for 21-Apr-2019
 Local
(UTC-7)
 Zulu
(UTC)
Morning civil twilight05:3212:32
Sunrise06:0613:06
Sunset20:0403:04
Evening civil twilight20:3803:38

Current date and time
Zulu (UTC)  22-Apr-2019 03:35:46
Local (UTC-7)  21-Apr-2019 20:35:46
 
METAR
KAWO 
23nm W 
220256Z AUTO 31006KT 10SM CLR 10/06 A3029 RMK AO2 SLP263 T01000061 55000 $
KPAE 
34nm SW 
220253Z 01007KT 10SM CLR 10/06 A3029 RMK AO2 SLP258 T01000056 55001
KBVS 
34nm W 
220310Z AUTO 00000KT 10SM BKN110 10/05 A3029 RMK A01
KNUW 
42nm W 
220256Z 23007KT 10SM FEW035 SCT080 BKN150 BKN240 11/06 A3033 RMK AO2 SLP270 T01060056 55004 $
74S 
44nm W 
SuperAWOS
220234Z AUTO 16005KT 10SM 10/07 A3029
TAF
KPAE 
34nm SW 
211724Z 2118/2218 22010KT P6SM BKN012 BKN030 TEMPO 2118/2120 BKN007 FM212000 23008KT P6SM SCT030 BKN150 FM220800 14007KT P6SM BKN040 OVC100
KNUW 
42nm W 
2123/2223 24008KT 9999 SCT020 BKN030 BKN120 621105 QNH3030INS FM220500 26008KT 9999 SCT020 SCT030 BKN090 621105 QNH3027INS FM221200 13008KT 9999 VCSH SCT015 BKN025 OVC090 650906 621503 QNH3025INS FM221800 16008KT 9000 -RA BR SCT015 OVC025 651103 621503 QNH3024INS FM222100 16008KT 6000 -RA BR BKN015 OVC025 651106 QNH3020INS T08/2213Z T10/2221Z FS30141
NOTAMs
Click for the latest NOTAMs
NOTAMs are issued by the DoD/FAA and will open in a separate window not controlled by AirNav.

 

 
 

Would you like to see your business listed on this page?

 If your business provides an interesting product or service to pilots, flight crews, aircraft, or users of the Darrington Municipal Airport, you should consider listing it here.  To start the listing process, click on the button below
 
Add a business
 

Other Pages about Darrington Municipal Airport

Update a link
 
Copyright © AirNav, LLC. All rights reserved. Privacy Policy  Contact